KOMPSAT 3A

导读 | 星芒AI

KOMPSAT 3A 是韩国开发的高分辨率地球观测卫星,于2015年发射。它搭载了先进的光学遥感器,具备0.7米全色和2.8米多光谱的地面分辨率,广泛应用于环境监测、城市规划、灾害评估等领域。该卫星由韩国航空宇宙研究院(KARI)运营,是KOMPSAT系列的重要成员,提升了韩国在遥感技术领域的自主能力。

基本信息
目录编号:
40536
目录名称:
KOMPSAT 3A
国际标识:
2015-014A
轨道中心:
EARTH
卫星名称:
KOMPSAT 3A
卫星全名:
--
卫星状态:
在轨 (已飞行3969 天)
发射日期:
2015-03-25 UTC
国别 :
韩国 (KR)
星等 :
--
轨道信息
数据来源 国际轨道数据
星历时间: 2026-02-03T23:40:26+0800
10小时前
查看轨道信息
半长轴: 6804.059km
偏心率: 0.0063667
轨道倾角: 97.683°
近地点辐角 304.346°
升交点赤经 17.026°
平近点角 55.178°
近地点: 382.602km
远地点: 469.242km
周期: 93.092分钟
每日圈数: 15.468588
详细信息
使用方式:
暂无
2D轨道图
3D轨道图
轨道高度分析图
轨道倾角分析图
轨道综合分析图
查看轨道综合分析图